Location: Goodmans Corner
(38.2049°N, 120.9872°W)
Time: 06:18:44
(UTC+00:00)

Hubble Space Telescope - Visible Passes

Search period start: 21 April 2019 00:00
Search period end: 01 May 2019 00:00
Orbit: 537 x 540 km, 28.5° (Epoch: 20 April)

Date Brightness Start Highest point End Pass type
(mag) Time Alt. Az. Time Alt. Az. Time Alt. Az.
24 Apr 2.9 12:41:40 10° SSW 12:44:15 16° SSE 12:46:50 10° SE visible
25 Apr 2.7 12:30:49 10° SSW 12:33:39 18° S 12:36:28 10° SE visible
26 Apr 2.6 12:20:25 12° SW 12:23:02 19° S 12:26:01 10° SE visible
27 Apr 2.4 12:10:23 14° SSW 12:12:26 20° S 12:15:31 10° SE visible
28 Apr 2.4 12:00:21 17° SSW 12:01:50 21° S 12:04:59 10° SE visible
29 Apr 2.2 11:50:22 20° SSW 11:51:14 21° S 11:54:24 10° SE visible
30 Apr 2.2 11:40:25 21° S 11:40:39 21° S 11:43:46 10° SE visible
